When you browse on this site, cookies collect data to enhance your experience and personalize the content and advertising you see.
Visit our Privacy Policy to learn more. By continuing to use the site, you agree to this use of cookies and data.

Hourly Weather Haflong

Today, 5 August, Wednesday

Time Temperature Precipitation Wind Pressure Humidity
00:00 +28°C° 0 mm 1 mps 713 mmHg 79%
01:00 +28°C° 0 mm 1 mps 712 mmHg 80%
02:00 +28°C° 0 mm 1 mps 712 mmHg 81%
03:00 +27°C° 0 mm 1 mps 712 mmHg 82%
04:00 +27°C° 0.9 mm 1 mps 712 mmHg 86%
05:00 +26°C° 0.9 mm 1 mps 713 mmHg 91%
06:00 +26°C° 0 mm 1 mps 712 mmHg 95%
07:00 +28°C° 0.3 mm 1 mps 713 mmHg 84%
08:00 +31°C° 0.3 mm 1 mps 714 mmHg 72%
09:00 +34°C° 0.3 mm 1 mps 715 mmHg 61%
10:00 +34°C° 0 mm 1 mps 715 mmHg 62%
11:00 +34°C° 0 mm 1 mps 714 mmHg 63%
12:00 +34°C° 0 mm 1 mps 714 mmHg 64%
13:00 +34°C° 0.1 mm 1 mps 714 mmHg 62%
14:00 +35°C° 0.1 mm 1 mps 713 mmHg 59%
15:00 +37°C° 0.1 mm 2 mps 713 mmHg 57%
16:00 +34°C° 0.2 mm 1 mps 713 mmHg 64%
17:00 +33°C° 0.2 mm 1 mps 713 mmHg 72%
18:00 +31°C° 0.2 mm 1 mps 713 mmHg 80%
19:00 +30°C° 0.1 mm 1 mps 714 mmHg 82%
20:00 +29°C° 0.1 mm 1 mps 715 mmHg 85%
21:00 +28°C° 0.1 mm 1 mps 716 mmHg 87%
22:00 +28°C° 0.1 mm 1 mps 716 mmHg 89%
23:00 +27°C° 0.1 mm 1 mps 716 mmHg 91%

Tomorrow, 6 August, Thursday

Time Temperature Precipitation Wind Pressure Humidity
00:00 +27°C° 0.1 mm 1 mps 716 mmHg 93%
01:00 +27°C° 0.4 mm 1 mps 716 mmHg 94%
02:00 +27°C° 0.4 mm 1 mps 716 mmHg 94%
03:00 +26°C° 0.4 mm 1 mps 716 mmHg 95%
04:00 +26°C° 1.1 mm 1 mps 717 mmHg 96%
05:00 +26°C° 1.1 mm 1 mps 717 mmHg 97%
06:00 +26°C° 1.1 mm 1 mps 717 mmHg 98%
07:00 +25°C° 0.9 mm 0 mps 718 mmHg 95%
08:00 +26°C° 0.9 mm 0 mps 718 mmHg 93%
09:00 +27°C° 0.9 mm 0 mps 719 mmHg 91%
10:00 +28°C° 1.6 mm 0 mps 718 mmHg 89%
11:00 +31°C° 1.6 mm 1 mps 718 mmHg 87%
12:00 +31°C° 1.6 mm 1 mps 718 mmHg 85%
13:00 +32°C° 0.7 mm 1 mps 717 mmHg 81%
14:00 +32°C° 0.7 mm 1 mps 716 mmHg 77%
15:00 +32°C° 0.7 mm 2 mps 716 mmHg 73%
16:00 +31°C° 0.2 mm 1 mps 716 mmHg 78%
17:00 +30°C° 0.2 mm 1 mps 715 mmHg 83%
18:00 +29°C° 0.2 mm 1 mps 715 mmHg 88%
19:00 +29°C° 0.1 mm 1 mps 716 mmHg 90%
20:00 +28°C° 0.1 mm 1 mps 716 mmHg 93%
21:00 +27°C° 0.1 mm 1 mps 717 mmHg 95%
22:00 +27°C° 0.1 mm 1 mps 717 mmHg 96%
23:00 +27°C° 0.1 mm 1 mps 717 mmHg 96%

Day after tomorrow, 7 August, Friday

Time Temperature Precipitation Wind Pressure Humidity
00:00 +27°C° 0.1 mm 1 mps 717 mmHg 97%
01:00 +26°C° 0.1 mm 1 mps 717 mmHg 96%
02:00 +26°C° 0.1 mm 1 mps 717 mmHg 96%
03:00 +26°C° 0.1 mm 1 mps 716 mmHg 96%
04:00 +26°C° 0 mm 1 mps 717 mmHg 96%
05:00 +26°C° 0 mm 1 mps 717 mmHg 95%
06:00 +26°C° 0 mm 1 mps 717 mmHg 95%
07:00 +27°C° 0.1 mm 1 mps 717 mmHg 92%
08:00 +28°C° 0.1 mm 1 mps 718 mmHg 90%
09:00 +29°C° 0.1 mm 1 mps 718 mmHg 87%
10:00 +31°C° 0.1 mm 1 mps 717 mmHg 78%
11:00 +32°C° 0.1 mm 1 mps 717 mmHg 70%
12:00 +34°C° 0.1 mm 1 mps 716 mmHg 62%
13:00 +33°C° 0.8 mm 1 mps 716 mmHg 70%
14:00 +33°C° 0.8 mm 1 mps 715 mmHg 77%
15:00 +32°C° 0.8 mm 1 mps 714 mmHg 85%
16:00 +31°C° 0.8 mm 1 mps 714 mmHg 88%
17:00 +30°C° 0.8 mm 1 mps 714 mmHg 90%
18:00 +29°C° 0.8 mm 1 mps 714 mmHg 93%
19:00 +28°C° 0.2 mm 1 mps 715 mmHg 94%
20:00 +27°C° 0.2 mm 1 mps 716 mmHg 95%
21:00 +27°C° 0.2 mm 1 mps 717 mmHg 96%
22:00 +27°C° 0.1 mm 1 mps 717 mmHg 96%
23:00 +27°C° 0.1 mm 1 mps 717 mmHg 96%

8 August, Saturday

Time Temperature Precipitation Wind Pressure Humidity
00:00 +27°C° 0.1 mm 1 mps 717 mmHg 96%
01:00 +26°C° 0.1 mm 1 mps 716 mmHg 96%
02:00 +26°C° 0.1 mm 1 mps 716 mmHg 96%
03:00 +26°C° 0.1 mm 2 mps 715 mmHg 95%
04:00 +26°C° 0.1 mm 1 mps 715 mmHg 95%
05:00 +26°C° 0.1 mm 1 mps 715 mmHg 95%
06:00 +26°C° 0.1 mm 1 mps 716 mmHg 95%
07:00 +26°C° 0.1 mm 1 mps 716 mmHg 93%
08:00 +27°C° 0.1 mm 1 mps 716 mmHg 91%
09:00 +27°C° 0.1 mm 1 mps 717 mmHg 89%
10:00 +29°C° 0 mm 1 mps 716 mmHg 82%
11:00 +30°C° 0 mm 1 mps 716 mmHg 76%
12:00 +31°C° 0 mm 1 mps 716 mmHg 70%
13:00 +32°C° 0 mm 1 mps 715 mmHg 68%
14:00 +32°C° 0 mm 1 mps 715 mmHg 66%
15:00 +33°C° 0 mm 1 mps 714 mmHg 64%
16:00 +32°C° 0.1 mm 1 mps 714 mmHg 70%
17:00 +30°C° 0.1 mm 1 mps 714 mmHg 77%
18:00 +29°C° 0.1 mm 1 mps 714 mmHg 84%
19:00 +29°C° 0.1 mm 1 mps 715 mmHg 87%
20:00 +28°C° 0.1 mm 1 mps 715 mmHg 90%
21:00 +27°C° 0.1 mm 1 mps 716 mmHg 93%
22:00 +27°C° 0.3 mm 1 mps 716 mmHg 94%
23:00 +27°C° 0.3 mm 1 mps 716 mmHg 95%

9 August, Sunday

Time Temperature Precipitation Wind Pressure Humidity
00:00 +26°C° 0.3 mm 1 mps 715 mmHg 96%
01:00 +26°C° 0.8 mm 1 mps 715 mmHg 97%
02:00 +26°C° 0.8 mm 1 mps 715 mmHg 98%
03:00 +26°C° 0.8 mm 1 mps 714 mmHg 99%
04:00 +26°C° 0.3 mm 1 mps 715 mmHg 99%
05:00 +26°C° 0.3 mm 1 mps 715 mmHg 99%
06:00 +26°C° 0.3 mm 1 mps 715 mmHg 99%
07:00 +26°C° 0.6 mm 1 mps 716 mmHg 99%
08:00 +26°C° 0.6 mm 1 mps 716 mmHg 99%
09:00 +26°C° 0.6 mm 1 mps 716 mmHg 98%
10:00 +26°C° 0.3 mm 1 mps 716 mmHg 98%
11:00 +26°C° 0.3 mm 1 mps 716 mmHg 97%
12:00 +26°C° 0.3 mm 1 mps 716 mmHg 96%
13:00 +26°C° 0.9 mm 1 mps 715 mmHg 97%
14:00 +26°C° 0.9 mm 1 mps 715 mmHg 98%
15:00 +26°C° 0.9 mm 1 mps 714 mmHg 98%
16:00 +26°C° 0.6 mm 1 mps 714 mmHg 98%
17:00 +26°C° 0.6 mm 1 mps 714 mmHg 98%
18:00 +25°C° 0.6 mm 1 mps 714 mmHg 98%
19:00 +25°C° 0 mm 1 mps 715 mmHg 97%
20:00 +25°C° 0 mm 1 mps 716 mmHg 97%
21:00 +25°C° 0 mm 1 mps 716 mmHg 97%
22:00 +25°C° 0 mm 1 mps 716 mmHg 97%
23:00 +25°C° 0 mm 1 mps 716 mmHg 96%

10 August, Monday

Time Temperature Precipitation Wind Pressure Humidity
00:00 +25°C° 0 mm 1 mps 716 mmHg 96%
01:00 +25°C° 0 mm 1 mps 716 mmHg 96%
02:00 +25°C° 0 mm 1 mps 715 mmHg 96%
03:00 +25°C° 0 mm 1 mps 715 mmHg 96%
04:00 +23°C° 0.1 mm 0 mps 715 mmHg 96%
05:00 +23°C° 0.1 mm 0 mps 716 mmHg 96%
06:00 +23°C° 0.1 mm 0 mps 716 mmHg 97%
07:00 +26°C° 0.1 mm 1 mps 716 mmHg 93%
08:00 +27°C° 0.1 mm 1 mps 717 mmHg 89%
09:00 +28°C° 0.1 mm 1 mps 717 mmHg 85%
10:00 +30°C° 0.5 mm 1 mps 717 mmHg 80%
11:00 +31°C° 0.5 mm 1 mps 716 mmHg 75%
12:00 +32°C° 0.5 mm 2 mps 716 mmHg 70%
13:00 +32°C° 0.8 mm 2 mps 715 mmHg 72%
14:00 +32°C° 0.8 mm 2 mps 715 mmHg 74%
15:00 +32°C° 0.8 mm 2 mps 714 mmHg 75%
16:00 +31°C° 0.3 mm 1 mps 714 mmHg 79%
17:00 +30°C° 0.3 mm 1 mps 714 mmHg 83%
18:00 +28°C° 0.3 mm 1 mps 714 mmHg 87%
19:00 +28°C° 0 mm 1 mps 714 mmHg 89%
20:00 +27°C° 0 mm 1 mps 715 mmHg 91%
21:00 +26°C° 0 mm 1 mps 715 mmHg 94%
22:00 +26°C° 0 mm 1 mps 715 mmHg 95%
23:00 +26°C° 0 mm 1 mps 715 mmHg 96%
Show more